Location: Lawrence
(38.9720°N, 95.2350°W)
Time: 10:15:04
(UTC-06:00)

JAS-1B - Visible Passes

Search period start: 22 January 2017 00:00
Search period end: 01 February 2017 00:00
Orbit: 911 x 1744 km, 99.0° (Epoch: 21 January)

Date Brightness Start Highest point End Pass type
(mag) Time Alt. Az. Time Alt. Az. Time Alt. Az.
22 Jan 10.1 18:57:19 10° NNW 19:02:23 17° NW 19:07:49 10° W visible
23 Jan 10.2 19:17:37 10° NNW 19:21:00 13° NW 19:24:31 10° WNW visible
25 Jan 9.6 18:02:08 10° N 18:09:51 35° WNW 18:18:18 10° WSW visible
26 Jan 9.9 18:21:34 10° N 18:28:39 27° WNW 18:36:17 10° WSW visible
27 Jan 10.0 18:41:11 10° NNW 18:47:22 21° WNW 18:53:57 10° W visible
28 Jan 10.2 19:01:04 10° NNW 19:06:00 16° NW 19:11:11 10° W visible
29 Jan 10.4 19:21:36 10° NNW 19:24:34 12° NW 19:27:37 10° WNW visible
31 Jan 9.8 18:05:50 10° N 18:13:39 33° WNW 18:21:57 10° WSW visible
